AKDT,Max TemperatureF,Mean TemperatureF,Min TemperatureF,Max Dew PointF,MeanDew PointF,Min DewpointF,Max Humidity, Mean Humidity, Min Humidity, Max Sea Level PressureIn, Mean Sea Level PressureIn, Min Sea Level PressureIn, Max VisibilityMiles, Mean VisibilityMiles, Min VisibilityMiles, Max Wind SpeedMPH, Mean Wind SpeedMPH, Max Gust SpeedMPH,PrecipitationIn, CloudCover, Events, WindDirDegrees
2013-4-1,40,30,19,26,21,14,96,73,37,30.15,30.10,30.05,10,8,0,14,2,,T,6,Fog-Snow,29
2013-4-2,36,24,12,15,12,6,74,56,30,30.22,30.16,30.11,10,10,10,12,6,,0.00,5,,20
2013-4-3,32,23,13,10,6,-2,65,47,26,30.50,30.38,30.23,10,10,10,18,10,,0.00,3,,33
2013-4-4,30,16,1,3,-3,-7,63,41,11,30.51,30.32,30.12,10,10,10,21,9,,0.00,0,,48
2013-4-5,19,11,3,-2,-7,-11,56,42,21,30.10,29.90,29.78,10,10,10,21,12,25,0.00,0,,25
2013-4-6,20,9,-3,-4,-9,-14,59,44,27,29.76,29.67,29.62,10,10,10,15,9,,T,4,,15
2013-4-7,11,1,-10,3,-1,-13,86,72,46,29.95,29.78,29.66,10,4,1,9,5,,0.04,8,Snow,210
2013-4-8,13,-2,-18,7,-1,-21,85,77,63,29.97,29.73,29.50,10,4,1,9,4,,0.11,7,Snow,202
2013-4-9,13,10,7,7,5,0,84,77,58,29.47,29.28,29.14,10,2,0,12,3,,0.11,8,Snow,222
2013-4-10,14,1,-13,1,-4,-15,75,59,26,29.99,29.78,29.52,10,9,2,12,7,17,T,6,Snow,221
2013-4-11,16,-2,-21,-2,-11,-24,87,62,35,30.28,30.17,30.02,10,10,10,10,2,,0.00,6,,207
2013-4-12,22,4,-15,2,-7,-18,95,60,30,30.38,30.35,30.29,10,10,10,7,1,,0.00,2,,202
2013-4-13,25,6,-13,1,-5,-16,79,54,24,30.51,30.46,30.39,10,10,10,8,3,,0.00,2,,141
2013-4-14,29,13,-3,18,7,-6,78,63,35,30.60,30.56,30.52,10,9,4,7,2,,T,7,Snow,19
2013-4-15,32,23,14,11,7,2,81,49,27,30.56,30.53,30.47,10,10,10,16,8,,0.00,6,,13
2013-4-16,30,21,12,16,6,0,69,49,33,30.46,30.35,30.28,10,10,8,17,8,,T,6,Snow,20
2013-4-17,31,23,15,11,7,4,60,49,33,30.40,30.34,30.28,10,10,10,22,10,,0.00,4,,13
2013-4-18,32,22,12,10,4,-1,54,44,25,30.46,30.42,30.40,10,10,10,17,8,,0.00,1,,27
2013-4-19,42,23,4,12,5,0,73,46,17,30.52,30.47,30.43,10,10,10,8,4,,0.00,0,,33
2013-4-20,43,24,5,14,7,1,81,44,12,30.43,30.37,30.30,10,10,10,7,2,,0.00,1,,162
2013-4-21,45,26,7,15,10,6,84,51,17,30.39,30.36,30.34,10,10,10,8,2,,0.00,2,,216
2013-4-22,46,28,9,17,12,4,81,49,19,30.50,30.45,30.40,10,10,10,8,2,,0.00,0,,169
2013-4-23,48,32,16,19,15,12,81,51,22,30.42,30.33,30.20,10,10,10,20,3,25,0.00,4,,248
2013-4-24,39,34,28,30,25,17,89,70,43,30.18,30.08,30.00,10,7,1,24,11,34,0.09,8,Snow,259
2013-4-25,34,25,16,13,2,-4,50,33,14,30.12,30.08,30.03,10,10,10,14,10,18,T,2,,12
2013-4-26,30,19,7,24,12,3,85,63,40,30.01,29.75,29.60,10,8,2,8,2,,0.00,7,Snow,83
2013-4-27,29,20,11,20,8,-3,92,50,23,30.18,29.98,29.71,10,10,6,18,8,23,0.00,3,Snow,27
2013-4-28,37,20,2,15,4,-6,70,46,22,30.21,30.17,30.11,10,10,10,15,3,,0.00,4,,254
2013-4-29,34,28,21,28,21,12,92,72,44,30.15,30.12,30.07,10,6,1,14,6,21,0.03,8,Snow,208
2013-4-30,38,33,27,29,27,23,92,84,47,30.10,29.96,29.86,10,4,1,10,4,,0.21,8,Snow,49